Location: Newark
(8.1700°N, 77.4300°E)
Time: 17:56:23
(UTC+00:00)

Hubble Space Telescope - Pass Details

Date: 25 August 2019
Orbit: 536 x 540 km, 28.5° (Epoch: 16 October)

Event Time Altitude Azimuth Distance (km) Brightness Sun altitude
Rises 14:29:51 0° 313° (NW) 2,663 5.3 -22.0°
Reaches altitude 10° 14:32:20 10° 326° (NW) 1,773 4.1 -22.6°
Enters shadow 14:35:23 27° 12° (NNE) 1,043 2.2 -23.3°
